Orbital Elements at Epoch 2459200.5 (2020-Dec-17.0) TDB
Reference: JPL 21 (heliocentric ecliptic J2000)
Element | Value | Uncertainty (1-sigma) | Units |
e | .1129042229964327 | 4.0049e-08 | |
a | 2.198853488425323 | 7.404e-09 | au |
q | 1.950593643831666 | 8.8046e-08 | au |
i | 5.103734012674307 | 4.1731e-06 | deg |
node | 257.9142945263313 | 4.5439e-05 | deg |
peri | 171.5266199031019 | 4.9603e-05 | deg |
M | 192.8314109368671 | 1.9524e-05 | deg |
tp | 2459753.525353951148 (2022-Jun-23.02535395) | 6.5756e-05 | TDB |
period | 1190.948183137595 3.26 | 6.0152e-06 1.647e-08 | d yr |
n | .3022801538279922 | 1.5268e-09 | deg/d |
Q | 2.447113333018979 | 8.2399e-09 | au |
|
| | Orbit Determination Parameters
Additional Information
|